Location: Altenst�hlen
(53.5567°N, 8.9425°E)
Time: 18:58:50
(UTC+00:00)

STARLINK-65 - Pass Details

Date: 23 October 2019
Orbit: 548 x 551 km, 53.0° (Epoch: 18 November)

Event Time Altitude Azimuth Distance (km) Brightness Sun altitude
Rises 16:49:13 0° 266° (W) 2,718 9.7 -6.4°
Reaches altitude 10° 16:51:27 10° 266° (W) 1,825 8.1 -6.7°
Maximum altitude 16:55:36 85° 178° (S) 558 3.7 -7.3°
Drops below altitude 10° 16:59:46 10° 91° (E) 1,827 5.6 -7.9°
Enters shadow 16:59:47 10° 91° (E) 1,838 5.6 -7.9°
